User: anonymous   Login
Location: NJAA Observatory
(40.6819°N, 74.8979°W)
Time: 07:22:41
(UTC-04:00)
Language:

Landsat 5 - Orbit

View from above orbital plane
View from above orbital plane
View from above satellite
View from above satellite

Ground track
Ground track

The orbit data is extracted from the following two-line orbital elements,

1 14780U 84021A   15187.17815797  .00001066  00000-0  10720-3 0  9998
2 14780 098.0305 275.8281 0092641 353.4821 006.5184 14.90415886669773
Epoch (UTC): 06 July 2015 04:16:32
Eccentricity: 0.0092641
inclination: 98.0305°
perigee height: 532 km
apogee height: 661 km
right ascension of ascending node: 275.8281°
argument of perigee: 353.4821°
revolutions per day: 14.90415886
mean anomaly at epoch: 6.5184°
orbit number at epoch: 66977

The dashed part of the orbit path shows where the satellite is in the earth's shadow,  

DLR